Regional Weather Roundup
Issued by NWS Cleveland, OH

Home | Current Version | Previous Version | Text Only | Print | Product List | Glossary Off
Versions: 1 2 3 4 5 6 7 8 9 10 11 12 13 14 15 16 17 18 19 20 21 22 23 24 25 26 27 28 29 30 31 32 33 34 35 36 37 38 39 40 41 42 43 44 45 46 47 48 49 50

000
ASUS41 KCLE 220302
RWRCLE
OHIO REGIONAL WEATHER ROUNDUP
NATIONAL WEATHER SERVICE CLEVELAND, OH
1000 PM EST SAT JAN 21 2017

NOTE: "FAIR" INDICATES FEW OR NO CLOUDS BELOW 12,000 FEET WITH NO
SIGNIFICANT WEATHER AND/OR OBSTRUCTIONS TO VISIBILITY.

OHZ001>008-015>018-024>027-034-035-043-044-220400-
   NORTHWEST OHIO

CITY           SKY/WX    TMP DP  RH WIND       PRES   REMARKS
DEFIANCE       CLEAR     49  47  93 S3        29.62R
FINDLAY        CLEAR     51  47  86 S7        29.62R
TOLEDO EXPRESS CLEAR     49  49 100 SE3       29.61S
TOLEDO EXEC    CLEAR     48  48 100 SE6       29.63S
LIMA           PTCLDY    51  50  96 S8        29.63R
$$

OHZ009>014-019>023-028>033-038-089-220400-
   NORTHEAST OHIO

CITY           SKY/WX    TMP DP  RH WIND       PRES   REMARKS
CLE-HOPKINS    LGT RAIN  58  50  75 SE12      29.67S
CLE-LAKEFRONT  CLOUDY    58  51  78 S12       29.64F
CUY CO. ARPT   CLOUDY    57  52  82 S12       29.67S
LORAIN-ELYRIA  CLOUDY    56  49  77 S8        29.65S
ASHTABULA      CLOUDY    56  50  80 S7        29.68S
AKRON-CANTON   CLOUDY    55  50  83 S10       29.68S
WOOSTER        LGT RAIN  54  50  86 S14       29.66F
MANSFIELD      CLOUDY    54  51  90 S9        29.66S
YOUNGSTOWN     CLOUDY    56  49  77 W9        29.71R
$$

OHZ042-051>053-060>062-070>072-077>081-220400-
  SOUTHWEST OHIO

CITY           SKY/WX    TMP DP  RH WIND       PRES   REMARKS
CINC-COVINGTON MOCLDY    57  52  83 S3        29.64R
CINC-LUNKEN    CLOUDY    53  52  96 CALM      29.65R
HAMILTON       CLOUDY    54  53  97 E5        29.65R
DAYTON         MOCLDY    53  50  89 S8        29.65R
WRIGHT-PAT AFB CLOUDY    53  53 100 CALM      29.65R
DAYTON GENERAL CLOUDY    56  52  86 S6        29.64R
WILMINGTON     CLOUDY    54  52  93 CALM      29.65S
$$

OHZ036-037-039>041-045>050-054>059-063>069-073>076-082>088-220400-
  CENTRAL AND SOUTHEAST OHIO

CITY           SKY/WX    TMP DP  RH WIND       PRES   REMARKS
COLUMBUS       LGT RAIN  57  51  80 SE6       29.65S
OSU AIRPORT    CLOUDY    56  52  86 CALM      29.65S
BOLTON FIELD   NOT AVBL
RICKENBACK AFB   N/A     55  52  90 SE8       29.64F
NEWARK         LGT RAIN  54  50  86 CALM      29.66S
MARION         LGT RAIN  54  50  86 S9        29.65S
LANCASTER      CLOUDY    56  51  84 SE6       29.67R
ZANESVILLE     CLOUDY    54  50  86 SE5       29.68F
NEW PHILLY     NOT AVBL
$$




USA.gov is the U.S. government's official web portal to all federal, state and local government web resources and services.